Weather History for KGCC - December, 2014

Change the Weather History Date:

Wednesday, December 17, 2014

  Actual Average Record
Temperature  
Mean Temperature 20 °F 23 °F  
Max Temperature 31 °F 34 °F 69 °F (1996)
Min Temperature 8 °F 13 °F -31 °F (1964)
Degree Days  
Heating Degree Days 45 42  
Month to date heating degree days 525 693  
Since 1 July heating degree days 2308 2568  
Cooling Degree Days 0 0  
Month to date cooling degree days 0 0  
Year to date cooling degree days 412 502  
Moisture  
Dew Point 15 °F    
Average Humidity 78    
Maximum Humidity 92    
Minimum Humidity 63    
Precipitation  
Precipitation 0.00 in 0.02 in 0.32 in (1968)
Month to date precipitation 0.13 0.25  
Year to date precipitation 18.07 13.74  
Sea Level Pressure  
Sea Level Pressure 30.06 in    
Wind  
Wind Speed 7 mph (SSW)    
Max Wind Speed 21 mph    
Max Gust Speed 23 mph    
Visibility 10 miles    
Events      
T = Trace of Precipitation, MM = Missing Value Source: NWS Daily Summary

Daily Weather History Graph

Daily Weather History Graph

Search for Another Location

Airport or City:

Trip Planner

Search our weather history database for the weather conditions in past years. The results will help you decide how hot, cold, wet, or windy it might be!

Date:

Astronomy

Dec. 17, 2014 Rise Set
Actual Time 7:32 AM MST 4:24 PM MST
Civil Twilight 6:59 AM MST 4:57 PM MST
Nautical Twilight 6:22 AM MST 5:34 PM MST
Astronomical Twilight 5:47 AM MST 6:09 PM MST
Moon 2:40 AM MST (12/17) 1:36 PM MST (12/17)
Length of Visible Light 9h 58m
Length of Day
8h 51m
Waning Crescent, 20% of the Moon is Illuminated
Dec 17
Waning Crescent
Dec 21
New
Dec 28
First Quarter
Jan 4
Full
Jan 13
Last Quarter

Hourly Weather History & Observations

Time (MST) Temp. Windchill Dew Point Humidity Pressure Visibility Wind Dir Wind Speed Gust Speed Precip Events Conditions
12:53 AM 18.0 °F 2.6 °F 16.0 °F 92% 30.09 in 9.0 mi South 17.3 mph - N/A   Overcast
1:53 AM 17.1 °F 2.0 °F 15.1 °F 92% 30.09 in 10.0 mi South 16.1 mph - N/A   Overcast
2:53 AM 17.1 °F 2.0 °F 14.0 °F 88% 30.09 in 10.0 mi South 16.1 mph - N/A   Scattered Clouds
3:06 AM 16.0 °F 0.1 °F 14.0 °F 92% 29.94 in 10.0 mi South 17.3 mph - N/A   Mostly Cloudy
3:35 AM 16.0 °F 0.1 °F 14.0 °F 92% 29.93 in 10.0 mi South 17.3 mph - N/A   Scattered Clouds
3:50 AM 15.8 °F 1.4 °F 14.0 °F 93% 29.93 in 10.0 mi South 13.8 mph - N/A   Mostly Cloudy
3:53 AM 16.0 °F 1.7 °F 14.0 °F 92% 30.09 in 10.0 mi South 13.8 mph - N/A   Mostly Cloudy
4:39 AM 16.0 °F -0.4 °F 14.0 °F 92% 29.93 in 10.0 mi South 18.4 mph - N/A   Mostly Cloudy
4:53 AM 16.0 °F 0.1 °F 14.0 °F 92% 30.08 in 10.0 mi South 17.3 mph - N/A   Overcast
5:13 AM 15.1 °F 4.2 °F 12.9 °F 91% 29.92 in 10.0 mi South 8.1 mph - N/A   Scattered Clouds
5:53 AM 15.1 °F -0.1 °F 12.0 °F 88% 30.08 in 10.0 mi South 15.0 mph - N/A   Clear
6:53 AM 12.9 °F 3.8 °F 10.9 °F 92% 30.10 in 10.0 mi South 5.8 mph - N/A   Clear
7:53 AM 10.9 °F 4.7 °F 8.1 °F 88% 30.11 in 10.0 mi South 3.5 mph - N/A   Clear
8:53 AM 14.0 °F - 10.9 °F 88% 30.11 in 10.0 mi Calm Calm - N/A   Clear
9:53 AM 16.0 °F - 12.9 °F 88% 30.11 in 10.0 mi Calm Calm - N/A   Clear
10:53 AM 19.9 °F - 16.0 °F 85% 30.09 in 10.0 mi Calm Calm - N/A   Clear
11:53 AM 23.0 °F - 18.0 °F 81% 30.06 in 10.0 mi Calm Calm - N/A   Clear
12:53 PM 28.9 °F 22.8 °F 21.0 °F 72% 30.03 in 10.0 mi West 5.8 mph - N/A   Clear
1:53 PM 30.0 °F 21.7 °F 19.9 °F 66% 30.03 in 10.0 mi West 9.2 mph - N/A   Clear
2:53 PM 30.0 °F 23.2 °F 19.0 °F 64% 30.03 in 10.0 mi West 6.9 mph - N/A   Clear
3:53 PM 28.9 °F - 19.0 °F 67% 30.05 in 10.0 mi Calm Calm - N/A   Clear
4:53 PM 19.9 °F - 14.0 °F 78% 30.10 in 10.0 mi Calm Calm - N/A   Clear
5:53 PM 19.9 °F - 15.1 °F 81% 30.10 in 10.0 mi Calm Calm - N/A   Clear
6:53 PM 19.9 °F 12.1 °F 15.1 °F 81% 30.11 in 10.0 mi SSW 5.8 mph - N/A   Clear
7:53 PM 19.0 °F - 14.0 °F 81% 30.12 in 10.0 mi Calm Calm - N/A   Clear
8:53 PM 19.0 °F 11.1 °F 16.0 °F 88% 30.10 in 10.0 mi WSW 5.8 mph - N/A   Clear
9:53 PM 24.1 °F 18.2 °F 19.0 °F 81% 30.09 in 10.0 mi WSW 4.6 mph - N/A   Clear
10:53 PM 27.0 °F 19.5 °F 19.9 °F 75% 30.06 in 10.0 mi SSW 6.9 mph - N/A   Clear
11:53 PM 26.1 °F 18.4 °F 19.9 °F 78% 30.06 in 10.0 mi SW 6.9 mph - N/A   Clear